Wind_Speed
19 21 21 20 20 19 17 16 15 15 16 14 14 14 14 14 14 14 15 15 15 14 14 12 9 10 9 9 12 14 14 14 14
21 21 21 20 18 17 16 15 13 12 11 11 10 10 11 11 13 14 13 14 14 13 13 13 12 11 11 12 13 14 14 14 14
21 21 20 18 17 16 14 13 11 9 7 8 8 8 9 9 10 11 12 13 13 12 12 12 12 12 12 13 13 13 14 14 14
20 19 18 17 16 14 13 11 9 7 5 5 5 6 7 7 8 9 10 11 12 12 11 12 12 12 11 11 11 12 13 13 13
18 17 16 15 13 12 10 10 8 5 2 2 3 4 5 6 6 7 8 10 11 11 10 11 11 11 11 11 11 11 12 12 12
15 14 13 12 11 9 9 8 7 5 3 1 2 3 4 5 5 5 6 8 9 10 10 10 10 11 11 11 11 11 11 11 11
13 13 12 10 9 8 7 6 5 4 3 2 3 2 2 4 4 3 4 6 8 8 10 10 10 11 11 11 10 10 10 10 10
12 11 10 9 8 7 6 5 6 5 4 3 3 3 3 2 3 3 4 5 7 8 9 10 10 11 12 11 10 10 10 9 9
11 10 9 8 7 7 6 5 5 5 3 2 2 2 2 2 3 3 4 5 6 7 8 10 10 11 12 11 11 11 10 9 8
10 9 8 8 8 6 6 5 5 4 4 3 2 2 2 3 4 4 5 6 7 8 9 10 10 12 12 10 13 12 12 11 10
9 9 9 8 7 7 6 6 5 5 4 3 3 3 4 4 5 6 7 9 10 11 9 10 10 11 12 11 13 12 11 12 13
10 10 10 8 8 8 7 7 6 5 5 5 5 4 5 8 10 10 10 12 15 14 14 13 10 13 12 11 13 13 15 17 14
12 11 9 9 10 9 8 7 6 5 5 5 5 7 9 9 12 13 14 18 16 18 17 13 12 14 13 12 12 17 19 19 14
12 13 11 11 11 10 8 7 5 4 6 8 9 12 12 14 16 17 19 21 20 17 14 14 12 11 11 11 15 18 21 18 17
12 12 14 12 13 11 8 6 6 9 10 11 13 14 16 18 23 23 23 20 18 15 12 11 11 11 10 10 13 16 17 17 16
12 12 14 13 10 7 7 9 11 11 11 13 16 18 21 24 23 17 13 11 11 10 11 12 12 10 12 11 12 12 16 16 17
18 14 13 12 10 10 11 12 11 12 14 15 18 20 19 7 3 7 10 9 9 10 11 10 12 11 11 12 13 13 14 17 19
24 24 21 19 15 13 15 16 16 17 19 19 15 10 6 7 14 9 12 9 10 8 9 10 13 14 14 14 15 13 14 19 22
29 29 26 19 14 14 18 19 20 23 23 21 20 21 23 14 9 7 7 6 7 11 14 15 16 16 17 17 17 15 15 19 22
29 27 24 19 17 19 20 17 23 21 20 19 18 17 17 18 19 20 15 15 15 14 17 19 20 17 20 17 16 16 16 21 20
Wind_Direction
134 133 133 132 131 130 126 123 115 106 103 98 89 80 72 71 68 63 59 56 55 53 52 56 56 49 41 31 23 22 21 21 20
136 136 135 133 134 134 132 127 118 108 97 88 85 76 70 65 63 61 56 54 50 48 46 44 45 39 31 26 23 20 19 19 21
139 138 138 139 140 140 138 133 126 116 107 93 85 69 64 60 54 53 52 52 47 42 40 38 35 32 29 25 23 21 20 18 19
140 139 140 143 144 143 144 145 142 139 127 97 82 65 55 50 45 44 45 48 43 37 32 32 30 28 26 24 23 21 20 19 18
146 144 144 144 143 143 143 150 157 158 145 85 31 29 35 34 35 38 39 38 39 30 25 25 24 23 22 21 19 17 18 17 17
153 151 149 149 150 152 155 160 168 177 195 271 330 338 359 14 20 28 31 30 30 24 17 16 15 12 14 13 11 8 7 8 9
162 161 161 163 166 171 177 181 184 192 204 221 268 287 325 350 357 10 22 22 17 15 10 6 3 359 359 359 356 355 358 -0 3
174 174 176 180 184 190 194 196 198 196 201 226 236 263 287 311 348 5 6 5 2 358 358 359 359 352 350 341 336 337 341 347 355
189 190 198 202 205 205 196 185 181 185 194 196 199 229 281 323 340 337 339 343 343 340 341 348 352 349 338 330 337 337 326 325 335
199 212 209 205 205 200 195 195 193 203 215 229 240 273 297 311 318 320 321 324 327 322 324 335 335 334 331 337 338 341 332 326 311
215 221 214 207 206 205 208 210 216 219 233 250 273 287 297 315 320 315 306 307 315 326 313 314 313 318 317 333 325 335 343 337 327
231 223 223 218 218 217 219 223 224 235 264 285 301 308 309 318 312 307 309 301 311 304 303 303 305 294 311 316 314 336 332 333 327
239 238 233 227 229 230 225 227 238 266 291 312 319 317 308 303 302 304 299 299 297 294 294 289 285 289 296 304 309 323 322 322 317
251 245 239 238 239 238 234 240 260 299 311 301 302 296 296 295 290 289 286 296 294 288 281 278 284 283 280 286 294 310 315 314 314
247 245 234 238 237 236 241 260 277 279 290 293 290 292 291 292 297 296 289 289 287 280 275 260 268 277 250 282 306 327 326 317 315
239 234 223 227 229 238 243 256 264 274 276 283 290 287 288 287 292 298 307 295 282 273 258 261 271 251 272 276 300 319 320 333 326
231 214 214 209 219 236 253 258 265 274 281 285 289 297 302 302 255 297 303 283 286 293 253 251 251 241 268 289 289 298 311 322 328
229 228 223 218 222 234 248 264 270 272 276 275 274 295 281 279 288 280 287 290 297 289 262 247 255 265 271 287 278 279 304 319 325
235 236 232 224 232 252 268 271 272 279 280 280 279 277 273 279 290 281 264 260 272 265 259 259 268 269 275 283 276 278 306 314 325
237 235 225 228 245 251 268 270 279 283 283 285 285 281 276 272 265 280 281 277 283 266 266 269 266 267 276 269 270 292 307 313 329
Height
1551 1553 1555 1556 1558 1559 1560 1562 1562 1563 1565 1566 1566 1567 1567 1567 1567 1567 1567 1567 1566 1566 1565 1565 1564 1564 1563 1562 1561 1560 1559 1558 1556
1553 1555 1557 1558 1559 1561 1562 1563 1564 1565 1566 1567 1568 1569 1568 1569 1568 1568 1568 1568 1568 1567 1567 1566 1566 1565 1564 1563 1562 1561 1559 1558 1557
1554 1556 1558 1560 1561 1562 1564 1564 1566 1566 1568 1569 1569 1570 1570 1570 1570 1569 1569 1569 1569 1569 1568 1567 1567 1566 1564 1564 1563 1561 1560 1559 1558
1557 1558 1560 1561 1563 1564 1565 1566 1567 1567 1568 1569 1570 1571 1571 1571 1571 1570 1570 1569 1569 1569 1569 1568 1568 1567 1566 1565 1564 1563 1561 1560 1559
1559 1560 1561 1563 1564 1566 1566 1567 1568 1568 1568 1569 1570 1571 1571 1571 1571 1571 1571 1570 1570 1570 1570 1569 1569 1568 1567 1566 1565 1564 1562 1561 1560
1560 1561 1563 1564 1565 1566 1567 1568 1568 1569 1569 1569 1569 1570 1571 1571 1571 1571 1571 1571 1571 1570 1570 1570 1569 1568 1567 1566 1565 1564 1563 1561 1560
1561 1562 1563 1565 1566 1567 1568 1568 1569 1569 1570 1570 1570 1570 1570 1571 1571 1571 1571 1571 1570 1570 1570 1570 1569 1568 1567 1566 1565 1564 1563 1561 1560
1561 1562 1564 1565 1566 1567 1568 1569 1569 1569 1570 1570 1570 1570 1570 1570 1570 1570 1570 1570 1570 1569 1569 1569 1568 1568 1567 1565 1564 1563 1562 1561 1560
1560 1562 1563 1564 1565 1566 1567 1568 1569 1569 1569 1569 1570 1570 1570 1570 1570 1570 1570 1569 1569 1569 1569 1568 1567 1567 1565 1564 1563 1563 1561 1560 1559
1560 1561 1562 1563 1564 1565 1566 1567 1568 1569 1569 1569 1569 1570 1569 1569 1569 1569 1569 1569 1568 1568 1567 1567 1566 1565 1564 1563 1562 1561 1560 1559 1558
1558 1560 1561 1562 1563 1564 1565 1566 1567 1567 1568 1568 1568 1568 1568 1568 1568 1568 1568 1568 1567 1566 1566 1565 1564 1564 1563 1562 1561 1559 1559 1558 1556
1556 1557 1559 1560 1562 1563 1564 1565 1566 1566 1567 1567 1567 1567 1567 1567 1567 1566 1566 1565 1566 1565 1564 1564 1563 1561 1561 1560 1559 1558 1558 1557 1555
1555 1556 1557 1558 1560 1561 1562 1563 1564 1565 1565 1566 1566 1566 1565 1565 1565 1564 1563 1562 1561 1561 1561 1561 1561 1560 1559 1559 1556 1556 1555 1554 1553
1552 1553 1555 1556 1558 1560 1561 1561 1562 1563 1564 1564 1565 1564 1563 1563 1561 1560 1559 1558 1557 1556 1556 1557 1558 1558 1558 1557 1556 1554 1553 1551 1550
1547 1549 1551 1553 1555 1557 1559 1560 1561 1561 1562 1562 1562 1561 1561 1559 1557 1556 1554 1553 1552 1552 1552 1553 1554 1554 1554 1554 1553 1552 1550 1549 1547
1543 1545 1547 1549 1552 1555 1555 1557 1558 1558 1559 1558 1558 1557 1557 1555 1552 1551 1550 1549 1549 1549 1550 1551 1551 1551 1552 1551 1549 1548 1547 1545 1544
1539 1541 1545 1545 1548 1552 1553 1554 1555 1556 1556 1555 1554 1552 1551 1549 1549 1548 1549 1546 1546 1546 1548 1549 1549 1549 1549 1548 1547 1546 1544 1543 1541
1535 1537 1541 1542 1543 1546 1549 1550 1550 1551 1552 1552 1553 1550 1548 1548 1548 1546 1544 1544 1545 1544 1545 1546 1548 1548 1546 1546 1545 1543 1542 1540 1538
1530 1533 1536 1537 1540 1540 1544 1544 1544 1546 1546 1547 1546 1547 1547 1546 1546 1544 1542 1542 1542 1543 1543 1544 1544 1544 1544 1543 1542 1541 1540 1538 1535
1526 1527 1527 1534 1538 1537 1539 1538 1538 1540 1541 1541 1541 1541 1542 1543 1542 1539 1540 1539 1539 1540 1541 1540 1540 1540 1541 1539 1538 1538 1537 1535 1532